TimeCDT,TemperatureF,Dew PointF,Humidity,Sea Level PressureIn,VisibilityMPH,Wind Direction,Wind SpeedMPH,Gust SpeedMPH,PrecipitationIn,Events,Conditions,WindDirDegrees,DateUTC
12:53 AM,27.0,18.0,69,30.13,10.0,NW,10.4,-,N/A,,Clear,310,2013-03-11 05:53:00
1:53 AM,26.1,17.1,69,30.12,10.0,NW,8.1,-,N/A,,Clear,310,2013-03-11 06:53:00
2:53 AM,24.1,17.1,75,30.10,10.0,WNW,8.1,-,N/A,,Clear,290,2013-03-11 07:53:00
3:53 AM,23.0,17.1,78,30.10,10.0,West,9.2,-,N/A,,Clear,260,2013-03-11 08:53:00
4:53 AM,23.0,17.6,80,30.05,10.0,West,8.1,-,N/A,,Clear,280,2013-03-11 09:53:00
5:53 AM,23.0,17.1,78,30.08,10.0,WNW,8.1,-,N/A,,Clear,290,2013-03-11 10:53:00
6:53 AM,24.1,18.0,77,30.07,10.0,WNW,6.9,-,N/A,,Clear,300,2013-03-11 11:53:00
7:53 AM,23.0,18.0,81,30.08,10.0,WNW,5.8,-,N/A,,Clear,290,2013-03-11 12:53:00
8:53 AM,26.1,19.9,78,30.07,10.0,SW,5.8,-,N/A,,Clear,220,2013-03-11 13:53:00
9:53 AM,30.9,19.9,64,30.09,10.0,West,5.8,-,N/A,,Clear,280,2013-03-11 14:53:00
10:53 AM,37.0,17.1,44,30.08,10.0,West,4.6,-,N/A,,Clear,270,2013-03-11 15:53:00
11:53 AM,44.1,19.0,37,30.06,10.0,West,5.8,-,N/A,,Clear,270,2013-03-11 16:53:00
12:53 PM,48.9,23.0,36,30.02,10.0,West,8.1,-,N/A,,Clear,270,2013-03-11 17:53:00
1:53 PM,57.0,27.0,32,29.99,10.0,West,11.5,-,N/A,,Clear,270,2013-03-11 18:53:00
2:53 PM,59.0,28.0,31,29.96,10.0,Variable,5.8,-,N/A,,Clear,0,2013-03-11 19:53:00
3:53 PM,62.1,27.0,26,29.93,10.0,Variable,6.9,-,N/A,,Clear,0,2013-03-11 20:53:00
4:53 PM,64.0,24.1,22,29.93,10.0,NNW,9.2,-,N/A,,Clear,330,2013-03-11 21:53:00
5:53 PM,64.9,25.0,22,29.91,10.0,NNE,5.8,-,N/A,,Clear,30,2013-03-11 22:53:00
6:53 PM,61.0,27.0,27,29.91,10.0,East,5.8,-,N/A,,Clear,80,2013-03-11 23:53:00
7:53 PM,52.0,28.9,41,29.93,10.0,East,4.6,-,N/A,,Clear,90,2013-03-12 00:53:00
8:53 PM,46.9,30.0,52,29.94,10.0,ESE,6.9,-,N/A,,Clear,120,2013-03-12 01:53:00
9:53 PM,46.0,33.1,61,29.96,10.0,SE,10.4,-,N/A,,Clear,140,2013-03-12 02:53:00
10:53 PM,45.0,34.0,65,29.96,10.0,SSE,10.4,-,N/A,,Clear,150,2013-03-12 03:53:00
11:53 PM,44.1,33.1,65,29.98,10.0,SSE,10.4,-,N/A,,Clear,150,2013-03-12 04:53:00